User: anonymous   Login
Location: Bretagne
(43.8474°N, 0.4650°W)
Time: 19:38:31
(UTC+00:00)
Language:

COSMO-SKYMED 1 - Orbit

View from above orbital plane
View from above orbital plane
View from above satellite
View from above satellite

Ground track
Ground track

The orbit is defined by the following mean orbital elements,

1 31598U          26073.61221536 +.00000000 +00000-0 +48503-3 0 00006
2 31598  97.8882 264.6838 0001598  94.6063 265.5341 14.96582605    00
Epoch (UTC): 14 March 2026 14:41:35
Eccentricity: 0.0001598
inclination: 97.8882°
perigee height: 576 km
apogee height: 579 km
right ascension of ascending node: 264.6838°
argument of perigee: 94.6063°
revolutions per day: 14.96582605
mean anomaly at epoch: 265.5341°

The dashed part of the orbit path shows where the satellite is in the earth's shadow,  

DLR